Powrót do katalogu

STARLINK-35044

AktywnyŁącznośćSSO
NORAD 65536·PAYLOAD·🇺🇸 United States

Wystrzelony Sep 6, 2025 z Cape Canaveral Space Force Station

Loading…

Następne Przeloty (najbliższe 24 godziny)

TLE

ŚwieżeSource: CelesTrak SupGP

Epoka: Sep 14, 2026, 23:20 UTC

1 65536C 25200S   26257.97270833  .00018927  00000+0  58771-3 0  2579
2 65536  97.2850 324.5230 0000898  92.2614 135.7142 15.33421500    14

Śledź STARLINK-35044 w czasie rzeczywistym z AllMySat

Download on the App Store